Regional Weather Roundup
Issued by NWS Jackson, KY

Home | Current Version | Previous Version | Graphics & Text | Print | Product List | Glossary On
Versions: 1 2 3 4 5 6 7 8 9 10 11 12 13 14 15 16 17 18 19 20 21 22 23 24 25 26 27 28 29 30 31 32 33 34 35 36 37 38 39 40 41 42 43 44 45 46 47 48 49 50
000
ASUS43 KJKL 191211
RWRJKL

EAST KENTUCKY HOURLY WEATHER ROUNDUP
NATIONAL WEATHER SERVICE JACKSON KY
800 AM EDT FRI SEP 19 2014

NOTE: "FAIR" INDICATES FEW OR NO CLOUDS BELOW 12,000 FEET WITH
NO SIGNIFICANT WEATHER AND/OR OBSTRUCTIONS TO VISIBILITY.

* THESE REPORTS ARE NOT UNDER NWS QUALITY CONTROL AND MAY NOT
  REPORT WEATHER SUCH AS PRECIPITATION AND FOG.

KYZ079-080-083-085-087-088-110-112-115-119-120-191300
...EASTERN KENTUCKY...

CITY           SKY/WX    TMP DP  RH WIND       PRES   REMARKS
JACKSON        CLEAR     53  49  86 CALM      30.14R
6HR MIN TEMP:  53; 6HR MAX TEMP:  58;

LONDON         CLEAR     55  51  86 N5        30.13R
6HR MIN TEMP:  54; 6HR MAX TEMP:  59;

MONTICELLO*    CLEAR     55  54  97 NE5       30.13R FOG
6HR MIN TEMP:  51; 6HR MAX TEMP:  58;

WILLIAMSBURG*  CLOUDY    50  50 100 CALM      30.12R
MIDDLESBORO*   FOG       54  54 100 CALM      30.14R VSB<1/4
6HR MIN TEMP:  53; 6HR MAX TEMP:  55;

HARLAN APT*    CLOUDY    54  54 100 MISG      30.14S VSB 1/2
BLACK MTN*       N/A     55  55 100 S1          N/A
PIKEVILLE APT* FOG       52  52 100 CALM      30.14R VSB 0
BIG SANDY*     FOG       50  50 100 CALM      30.15R VSB 1
6HR MIN TEMP:  50; 6HR MAX TEMP:  55;

MOREHEAD APT*  SUNNY     54  46  76 NE5       30.17R
$$

KYZ035-036-041-042-044-050-067-078-099-191300
...CENTRAL KENTUCKY...

CITY           SKY/WX    TMP DP  RH WIND       PRES   REMARKS
MT STERLING*   CLEAR     50  46  87 E6        30.16R
FLEMING/MASON* CLEAR     49  47  93 E5        30.17S
DANVILLE*      CLEAR     50  46  87 CALM      30.13S
RICHMOND*      CLEAR     50  48  93 CALM      30.13R
LEXINGTON      CLEAR     55  47  74 E8        30.14R
6HR MIN TEMP:  53; 6HR MAX TEMP:  60;

FRANKFORT      CLEAR     53  47  79 NE3       30.14R
6HR MIN TEMP:  51; 6HR MAX TEMP:  57;

$$

KYZ091>093-OHZ055-061-077-WVZ005-015-034-035-042-191300
...SOUTHERN OHIO/WEST VIRGINIA...

CITY           SKY/WX    TMP DP  RH WIND       PRES   REMARKS
COVINGTON      CLEAR     55  49  80 E8        30.17R
COLUMBUS       CLEAR     54  47  77 NE7       30.20R
DAYTON         PTCLDY    51  48  89 E6        30.21R
WILMINGTON     CLEAR     48  45  89 NE7       30.19R FOG
HUNTINGTON     CLEAR     51  48  89 NE7       30.16R
CHARLESTON     MOCLDY    50  50 100 CALM      30.16R FOG
PINEVILLE*     FOG       53  53 100 MISG      30.21R VSB 1/4
BECKLEY        CLOUDY    56  52  86 MISG      30.18R
BLUEFIELD      CLOUDY    58  54  86 VRB3      30.20R
$$

VAZ002-007-008-TNZ017-027-036-066-071-191300
...SOUTHWEST VIRGINIA/EAST TENNESSEE...

CITY           SKY/WX    TMP DP  RH WIND       PRES   REMARKS
WISE*          CLEAR     59  57  94 CALM      30.17S
JONESVILLE*    SUNNY     50  50 100 CALM      30.15R FOG
ABINGDON*      MOCLDY    59  58  94 E6        30.16R
BRISTOL        PTCLDY    56  53  90 CALM      30.14R
KNOXVILLE      PTCLDY    58  55  90 NE5       30.09R
OAK RIDGE      CLEAR     58  56  93 E3        30.12R
CROSSVILLE     PTCLDY    58  53  84 CALM      30.12R HAZE
NASHVILLE      PTCLDY    60  57  89 E3        30.06R
$$

...KEY TO REMARKS...
VSB - VISIBILITY IN MILES
WCI - WIND CHILL INDEX
HX  - HEAT INDEX

$$


USA.gov is the U.S. government's official web portal to all federal, state and local government web resources and services.